| time (UTC) | temp F | wind direction | speed MPH | gust MPH | rain 1hr in | rain 24hr in | rain mn in | humidity % | barometer mb |
| 20260901162512 | 80 | 293 | 0.0 | 5.0 | 0.00 | 0.09 | 0.00 | 80 | 1014.2 |
| 20260901162056 | 80 | 308 | 0.0 | 4.0 | 0.00 | 0.09 | 0.00 | 80 | 1014.2 |
| 20260901161537 | 80 | 308 | 0.0 | 4.0 | 0.00 | 0.09 | 0.00 | 81 | 1014.1 |
| 20260901161017 | 80 | 308 | 0.0 | 7.0 | 0.00 | 0.09 | 0.00 | 81 | 1014.1 |
| 20260901160600 | 80 | 296 | 1.0 | 7.0 | 0.00 | 0.09 | 0.00 | 80 | 1014.1 |
| 20260901160041 | 80 | 57 | 0.0 | 5.0 | 0.00 | 0.09 | 0.00 | 81 | 1014.1 |
| 20260901155502 | 79 | 293 | 1.0 | 6.0 | 0.00 | 0.09 | 0.00 | 81 | 1014.1 |
| 20260901155047 | 79 | 294 | 1.0 | 6.0 | 0.00 | 0.09 | 0.00 | 80 | 1014.0 |
| 20260901154526 | 79 | 296 | 0.0 | 4.0 | 0.00 | 0.09 | 0.00 | 80 | 1014.1 |
| 20260901154007 | 79 | 297 | 0.0 | 4.0 | 0.00 | 0.09 | 0.00 | 80 | 1014.1 |
| 20260901153551 | 79 | 297 | 0.0 | 4.0 | 0.00 | 0.09 | 0.00 | 81 | 1014.0 |
| 20260901153032 | 79 | 297 | 0.0 | 2.0 | 0.00 | 0.09 | 0.00 | 82 | 1014.0 |
| 20260901152510 | 79 | 297 | 0.0 | 2.0 | 0.00 | 0.09 | 0.00 | 82 | 1014.1 |
| 20260901152054 | 78 | 298 | 0.0 | 4.0 | 0.00 | 0.09 | 0.00 | 82 | 1014.0 |
| 20260901151535 | 78 | 298 | 0.0 | 5.0 | 0.00 | 0.09 | 0.00 | 83 | 1014.1 |
| 20260901151015 | 78 | 298 | 0.0 | 5.0 | 0.00 | 0.10 | 0.00 | 82 | 1014.1 |
| 20260901150558 | 78 | 304 | 0.0 | 4.0 | 0.00 | 0.10 | 0.00 | 82 | 1014.1 |
| 20260901150039 | 78 | 304 | 0.0 | 5.0 | 0.00 | 0.10 | 0.00 | 82 | 1014.0 |
| 20260901145607 | 78 | 304 | 0.0 | 5.0 | 0.00 | 0.10 | 0.00 | 83 | 1014.0 |
| 20260901145044 | 77 | 293 | 0.0 | 4.0 | 0.00 | 0.10 | 0.00 | 83 | 1013.9 |
| 20260901144524 | 77 | 310 | 0.0 | 2.0 | 0.00 | 0.10 | 0.00 | 84 | 1013.9 |
| 20260901144004 | 77 | 310 | 0.0 | 2.0 | 0.00 | 0.10 | 0.00 | 85 | 1013.9 |
| 20260901143548 | 77 | 310 | 0.0 | 2.0 | 0.00 | 0.10 | 0.00 | 85 | 1013.9 |
| 20260901143028 | 77 | 310 | 0.0 | 2.0 | 0.00 | 0.10 | 0.00 | 84 | 1013.7 |
| 20260901142509 | 77 | 310 | 0.0 | 4.0 | 0.00 | 0.10 | 0.00 | 85 | 1013.6 |
| 20260901142054 | 76 | 310 | 0.0 | 4.0 | 0.00 | 0.10 | 0.00 | 84 | 1013.7 |
| 20260901141539 | 76 | 310 | 0.0 | 4.0 | 0.00 | 0.10 | 0.00 | 85 | 1013.7 |
| 20260901141013 | 76 | 310 | 0.0 | 2.0 | 0.00 | 0.12 | 0.00 | 85 | 1013.9 |
| 20260901140556 | 76 | 311 | 0.0 | 6.0 | 0.00 | 0.12 | 0.00 | 85 | 1013.9 |
| 20260901140022 | 76 | 311 | 1.0 | 6.0 | 0.00 | 0.12 | 0.00 | 86 | 1014.0 |
| 20260901135603 | 76 | 339 | 0.0 | 4.0 | 0.00 | 0.12 | 0.00 | 86 | 1013.9 |
| 20260901135042 | 76 | 23 | 0.0 | 5.0 | 0.00 | 0.12 | 0.00 | 86 | 1014.0 |
| 20260901134523 | 76 | 296 | 0.0 | 5.0 | 0.00 | 0.12 | 0.00 | 87 | 1013.8 |
| 20260901134002 | 75 | 295 | 0.0 | 5.0 | 0.00 | 0.12 | 0.00 | 87 | 1013.9 |
| 20260901133547 | 75 | 295 | 1.0 | 5.0 | 0.00 | 0.12 | 0.00 | 87 | 1013.9 |
| 20260901133026 | 75 | 295 | 0.0 | 7.0 | 0.00 | 0.12 | 0.00 | 88 | 1014.0 |
| 20260901132509 | 75 | 295 | 0.0 | 7.0 | 0.00 | 0.12 | 0.00 | 89 | 1014.0 |
| 20260901132050 | 75 | 288 | 0.0 | 4.0 | 0.00 | 0.12 | 0.00 | 89 | 1013.9 |
| 20260901131536 | 75 | 287 | 0.0 | 4.0 | 0.00 | 0.12 | 0.00 | 90 | 1014.1 |
| 20260901131007 | 74 | 287 | 0.0 | 4.0 | 0.00 | 0.22 | 0.00 | 90 | 1014.2 |
| 20260901130551 | 74 | 276 | 0.0 | 4.0 | 0.00 | 0.22 | 0.00 | 91 | 1014.3 |
| 20260901130011 | 74 | 272 | 0.0 | 6.0 | 0.00 | 0.22 | 0.00 | 91 | 1014.2 |
| 20260901125555 | 74 | 271 | 0.0 | 6.0 | 0.00 | 0.22 | 0.00 | 92 | 1014.3 |
| 20260901125038 | 73 | 227 | 0.0 | 0.0 | 0.00 | 0.22 | 0.00 | 93 | 1014.3 |
| 20260901124516 | 73 | 225 | 0.0 | 0.0 | 0.00 | 0.22 | 0.00 | 93 | 1014.3 |
| 20260901124101 | 73 | 225 | 0.0 | 0.0 | 0.00 | 0.22 | 0.00 | 93 | 1014.2 |
| 20260901123539 | 73 | 225 | 0.0 | 0.0 | 0.00 | 0.22 | 0.00 | 94 | 1014.2 |
| 20260901123019 | 72 | 225 | 0.0 | 0.0 | 0.00 | 0.22 | 0.00 | 94 | 1014.2 |
| 20260901122604 | 72 | 225 | 0.0 | 0.0 | 0.00 | 0.22 | 0.00 | 94 | 1014.2 |
| 20260901122043 | 72 | 225 | 0.0 | 0.0 | 0.00 | 0.22 | 0.00 | 94 | 1014.1 |
| 20260901121524 | 72 | 225 | 0.0 | 0.0 | 0.00 | 0.22 | 0.00 | 94 | 1014.2 |
| 20260901121003 | 72 | 225 | 0.0 | 0.0 | 0.00 | 0.22 | 0.00 | 94 | 1014.1 |
| 20260901120549 | 72 | 225 | 0.0 | 0.0 | 0.00 | 0.22 | 0.00 | 94 | 1014.1 |
| 20260901120009 | 72 | 225 | 0.0 | 0.0 | 0.00 | 0.22 | 0.00 | 93 | 1014.0 |
| 20260901115553 | 72 | 225 | 0.0 | 0.0 | 0.00 | 0.22 | 0.00 | 93 | 1013.8 |
| 20260901115034 | 72 | 225 | 0.0 | 0.0 | 0.00 | 0.22 | 0.00 | 93 | 1013.6 |
| 20260901114513 | 72 | 225 | 0.0 | 0.0 | 0.00 | 0.22 | 0.00 | 93 | 1013.7 |
| 20260901114057 | 72 | 225 | 0.0 | 0.0 | 0.00 | 0.22 | 0.00 | 93 | 1013.9 |
| 20260901113537 | 72 | 225 | 0.0 | 0.0 | 0.00 | 0.22 | 0.00 | 93 | 1013.7 |
| 20260901113017 | 72 | 225 | 0.0 | 0.0 | 0.00 | 0.22 | 0.00 | 92 | 1013.7 |
| 20260901112601 | 72 | 225 | 0.0 | 0.0 | 0.00 | 0.22 | 0.00 | 92 | 1013.7 |
| 20260901112043 | 72 | 225 | 0.0 | 0.0 | 0.00 | 0.22 | 0.00 | 92 | 1013.6 |
| 20260901111521 | 72 | 225 | 0.0 | 0.0 | 0.00 | 0.22 | 0.00 | 92 | 1013.6 |
| 20260901111002 | 72 | 225 | 0.0 | 0.0 | 0.00 | 0.23 | 0.00 | 92 | 1013.5 |
| 20260901110545 | 72 | 225 | 0.0 | 0.0 | 0.00 | 0.23 | 0.00 | 92 | 1013.5 |
| 20260901110007 | 72 | 225 | 0.0 | 0.0 | 0.00 | 0.23 | 0.00 | 91 | 1013.4 |
| 20260901105551 | 72 | 225 | 0.0 | 0.0 | 0.00 | 0.23 | 0.00 | 91 | 1013.4 |
| 20260901105031 | 73 | 225 | 0.0 | 0.0 | 0.00 | 0.23 | 0.00 | 91 | 1013.5 |
| 20260901104520 | 73 | 225 | 0.0 | 0.0 | 0.00 | 0.23 | 0.00 | 91 | 1013.5 |
| 20260901104055 | 73 | 225 | 0.0 | 0.0 | 0.00 | 0.23 | 0.00 | 91 | 1013.5 |
| 20260901103534 | 73 | 225 | 0.0 | 0.0 | 0.00 | 0.23 | 0.00 | 90 | 1013.4 |
| 20260901103015 | 73 | 225 | 0.0 | 0.0 | 0.00 | 0.23 | 0.00 | 90 | 1013.4 |
| 20260901102559 | 73 | 225 | 0.0 | 0.0 | 0.00 | 0.23 | 0.00 | 90 | 1013.4 |
| 20260901102039 | 73 | 225 | 0.0 | 0.0 | 0.00 | 0.23 | 0.00 | 90 | 1013.3 |
| 20260901101519 | 73 | 225 | 0.0 | 0.0 | 0.00 | 0.23 | 0.00 | 89 | 1013.4 |
| 20260901101105 | 73 | 225 | 0.0 | 0.0 | 0.00 | 0.23 | 0.00 | 89 | 1013.3 |
| 20260901100545 | 73 | 225 | 0.0 | 0.0 | 0.00 | 0.23 | 0.00 | 89 | 1013.2 |
| 20260901100006 | 74 | 225 | 0.0 | 0.0 | 0.00 | 0.23 | 0.00 | 89 | 1013.3 |
| 20260901095548 | 74 | 225 | 0.0 | 0.0 | 0.00 | 0.23 | 0.00 | 89 | 1013.2 |
| 20260901095028 | 74 | 225 | 0.0 | 0.0 | 0.00 | 0.23 | 0.00 | 88 | 1013.2 |
| 20260901094508 | 74 | 225 | 0.0 | 0.0 | 0.00 | 0.23 | 0.00 | 88 | 1013.1 |
| 20260901094052 | 74 | 225 | 0.0 | 0.0 | 0.00 | 0.23 | 0.00 | 88 | 1013.1 |
| 20260901093532 | 74 | 225 | 0.0 | 0.0 | 0.00 | 0.23 | 0.00 | 88 | 1013.1 |
| 20260901093012 | 74 | 225 | 0.0 | 0.0 | 0.00 | 0.23 | 0.00 | 88 | 1013.0 |
| 20260901092559 | 74 | 225 | 0.0 | 0.0 | 0.00 | 0.23 | 0.00 | 88 | 1013.0 |
| 20260901092039 | 74 | 225 | 0.0 | 0.0 | 0.00 | 0.23 | 0.00 | 88 | 1013.0 |
| 20260901091516 | 74 | 225 | 0.0 | 0.0 | 0.00 | 0.23 | 0.00 | 88 | 1013.0 |
| 20260901091059 | 74 | 225 | 0.0 | 0.0 | 0.00 | 0.24 | 0.00 | 88 | 1012.9 |
| 20260901090539 | 74 | 225 | 0.0 | 4.0 | 0.00 | 0.24 | 0.00 | 88 | 1012.9 |
| 20260901090006 | 74 | 225 | 0.0 | 0.0 | 0.00 | 0.24 | 0.00 | 88 | 1012.9 |
| 20260901085546 | 74 | 225 | 0.0 | 0.0 | 0.00 | 0.24 | 0.00 | 88 | 1012.9 |
| 20260901085026 | 74 | 225 | 0.0 | 5.0 | 0.00 | 0.24 | 0.00 | 88 | 1012.9 |
| 20260901084507 | 74 | 225 | 0.0 | 7.0 | 0.00 | 0.24 | 0.00 | 87 | 1012.8 |
| 20260901084050 | 74 | 243 | 2.0 | 7.0 | 0.00 | 0.24 | 0.00 | 88 | 1012.7 |
| 20260901083531 | 74 | 227 | 0.0 | 5.0 | 0.00 | 0.24 | 0.00 | 88 | 1012.8 |
| 20260901083026 | 74 | 233 | 0.0 | 8.0 | 0.00 | 0.24 | 0.00 | 87 | 1012.8 |
| 20260901082554 | 74 | 233 | 0.0 | 8.0 | 0.00 | 0.24 | 0.00 | 87 | 1012.7 |
| 20260901082035 | 74 | 239 | 1.0 | 8.0 | 0.00 | 0.24 | 0.00 | 87 | 1012.6 |
| 20260901081517 | 74 | 260 | 0.0 | 7.0 | 0.00 | 0.24 | 0.00 | 87 | 1012.6 |
| 20260901081058 | 74 | 237 | 2.0 | 6.0 | 0.00 | 0.24 | 0.00 | 88 | 1012.6 |
| 20260901080538 | 74 | 233 | 0.0 | 6.0 | 0.00 | 0.24 | 0.00 | 88 | 1012.6 |
| 20260901080122 | 74 | 233 | 0.0 | 10.0 | 0.00 | 0.24 | 0.00 | 89 | 1012.7 |
| 20260901075543 | 74 | 260 | 2.0 | 10.0 | 0.00 | 0.24 | 0.00 | 89 | 1012.7 |
| 20260901075025 | 73 | 242 | 1.0 | 5.0 | 0.00 | 0.24 | 0.00 | 90 | 1012.8 |
| 20260901074513 | 73 | 235 | 0.0 | 9.0 | 0.00 | 0.24 | 0.00 | 91 | 1012.8 |
| 20260901074049 | 73 | 235 | 0.0 | 9.0 | 0.00 | 0.24 | 0.00 | 91 | 1012.7 |
| 20260901073529 | 73 | 329 | 0.0 | 4.0 | 0.00 | 0.24 | 0.00 | 92 | 1012.8 |
| 20260901073023 | 72 | 329 | 1.0 | 4.0 | 0.00 | 0.24 | 0.00 | 93 | 1012.9 |
| 20260901072552 | 72 | 241 | 0.0 | 4.0 | 0.00 | 0.24 | 0.00 | 93 | 1012.8 |
| 20260901072034 | 72 | 242 | 0.0 | 5.0 | 0.00 | 0.24 | 0.00 | 94 | 1013.0 |
| 20260901071512 | 72 | 242 | 0.0 | 5.0 | 0.00 | 0.24 | 0.00 | 94 | 1013.1 |
| 20260901071055 | 72 | 253 | 0.0 | 1.0 | 0.00 | 0.28 | 0.00 | 94 | 1013.1 |
| 20260901070536 | 72 | 253 | 0.0 | 4.0 | 0.00 | 0.28 | 0.00 | 94 | 1013.1 |
| 20260901070121 | 72 | 253 | 0.0 | 5.0 | 0.00 | 0.28 | 0.00 | 94 | 1013.2 |
| 20260901065542 | 72 | 253 | 0.0 | 5.0 | 0.00 | 0.28 | 0.00 | 95 | 1013.3 |
| 20260901065024 | 72 | 253 | 0.0 | 2.0 | 0.00 | 0.28 | 0.00 | 95 | 1013.2 |
| 20260901064502 | 71 | 253 | 0.0 | 2.0 | 0.00 | 0.28 | 0.00 | 94 | 1013.3 |
| 20260901064046 | 71 | 233 | 0.0 | 0.0 | 0.00 | 0.28 | 0.00 | 95 | 1013.4 |
| 20260901063527 | 71 | 233 | 0.0 | 0.0 | 0.00 | 0.28 | 0.00 | 95 | 1013.4 |
| 20260901063006 | 71 | 233 | 0.0 | 0.0 | 0.00 | 0.28 | 0.00 | 95 | 1013.5 |
| 20260901062550 | 71 | 233 | 0.0 | 0.0 | 0.00 | 0.28 | 0.00 | 95 | 1013.7 |
| 20260901062030 | 71 | 233 | 0.0 | 0.0 | 0.00 | 0.28 | 0.00 | 95 | 1013.8 |
| 20260901061510 | 71 | 233 | 0.0 | 0.0 | 0.00 | 0.28 | 0.00 | 95 | 1013.7 |
| 20260901061054 | 71 | 233 | 0.0 | 0.0 | 0.00 | 0.32 | 0.00 | 95 | 1013.8 |
| 20260901060534 | 71 | 233 | 0.0 | 4.0 | 0.00 | 0.32 | 0.00 | 95 | 1013.9 |
| 20260901060118 | 71 | 233 | 0.0 | 4.0 | 0.00 | 0.32 | 0.00 | 95 | 1014.0 |
| 20260901055541 | 71 | 233 | 0.0 | 2.0 | 0.00 | 0.32 | 0.00 | 95 | 1014.2 |
| 20260901055019 | 71 | 225 | 0.0 | 0.0 | 0.00 | 0.32 | 0.00 | 95 | 1014.3 |
| 20260901054614 | 71 | 225 | 0.0 | 0.0 | 0.00 | 0.32 | 0.00 | 95 | 1014.4 |
| 20260901054046 | 71 | 225 | 0.0 | 2.0 | 0.00 | 0.32 | 0.00 | 95 | 1014.3 |
| 20260901053521 | 71 | 225 | 0.0 | 2.0 | 0.00 | 0.32 | 0.00 | 95 | 1014.5 |
| 20260901053002 | 71 | 225 | 0.0 | 1.0 | 0.00 | 0.32 | 0.00 | 95 | 1014.5 |
| 20260901052545 | 71 | 225 | 0.0 | 1.0 | 0.00 | 0.32 | 0.00 | 95 | 1014.5 |
| 20260901052025 | 71 | 225 | 0.0 | 0.0 | 0.00 | 0.32 | 0.00 | 95 | 1014.4 |
| 20260901051509 | 71 | 225 | 0.0 | 0.0 | 0.00 | 0.32 | 0.00 | 95 | 1014.5 |
| 20260901051050 | 71 | 225 | 0.0 | 0.0 | 0.00 | 0.32 | 0.00 | 95 | 1014.4 |
| 20260901050530 | 71 | 225 | 0.0 | 0.0 | 0.00 | 0.32 | 0.00 | 95 | 1014.5 |
| 20260901050114 | 71 | 225 | 0.0 | 0.0 | 0.00 | 0.32 | 0.00 | 95 | 1014.5 |
| 20260901045535 | 71 | 225 | 0.0 | 0.0 | 0.00 | 0.32 | 0.00 | 95 | 1014.5 |
| 20260901045015 | 71 | 225 | 0.0 | 0.0 | 0.00 | 0.32 | 0.00 | 95 | 1014.6 |
| 20260901044600 | 71 | 225 | 0.0 | 0.0 | 0.00 | 0.32 | 0.00 | 95 | 1014.6 |
| 20260901044040 | 71 | 225 | 0.0 | 0.0 | 0.00 | 0.32 | 0.00 | 95 | 1014.5 |
| 20260901043520 | 71 | 225 | 0.0 | 0.0 | 0.00 | 0.32 | 0.00 | 95 | 1014.7 |
| 20260901043106 | 71 | 225 | 0.0 | 0.0 | 0.00 | 0.32 | 0.00 | 95 | 1014.8 |
| 20260901042543 | 71 | 225 | 0.0 | 0.0 | 0.00 | 0.32 | 0.00 | 95 | 1014.9 |
| 20260901042023 | 71 | 225 | 0.0 | 0.0 | 0.00 | 0.32 | 0.00 | 95 | 1015.2 |
| 20260901041504 | 71 | 225 | 0.0 | 0.0 | 0.00 | 0.32 | 0.00 | 95 | 1015.3 |
| 20260901041048 | 71 | 225 | 0.0 | 0.0 | 0.00 | 0.32 | 0.32 | 95 | 1015.2 |
| 20260901040529 | 71 | 225 | 0.0 | 0.0 | 0.00 | 0.32 | 0.32 | 95 | 1015.4 |
| 20260901040139 | 71 | 225 | 0.0 | 0.0 | 0.00 | 0.32 | 0.32 | 95 | 1015.3 |
| 20260901035534 | 71 | 225 | 0.0 | 0.0 | 0.00 | 0.32 | 0.32 | 95 | 1015.4 |
| 20260901035013 | 71 | 225 | 0.0 | 0.0 | 0.00 | 0.32 | 0.32 | 95 | 1015.4 |
| 20260901034558 | 71 | 225 | 0.0 | 0.0 | 0.00 | 0.32 | 0.32 | 95 | 1015.5 |
| 20260901034037 | 71 | 225 | 0.0 | 0.0 | 0.00 | 0.32 | 0.32 | 95 | 1015.6 |
| 20260901033517 | 71 | 225 | 0.0 | 0.0 | 0.00 | 0.32 | 0.32 | 95 | 1015.6 |
| 20260901033120 | 71 | 225 | 0.0 | 0.0 | 0.00 | 0.32 | 0.32 | 95 | 1015.6 |
| 20260901032542 | 71 | 225 | 0.0 | 0.0 | 0.00 | 0.32 | 0.32 | 95 | 1015.6 |
| 20260901032022 | 71 | 225 | 0.0 | 0.0 | 0.00 | 0.32 | 0.32 | 95 | 1015.7 |
| 20260901031505 | 71 | 225 | 0.0 | 0.0 | 0.00 | 0.32 | 0.32 | 95 | 1015.5 |
| 20260901031048 | 71 | 225 | 0.0 | 0.0 | 0.00 | 0.32 | 0.32 | 95 | 1015.6 |
| 20260901030525 | 71 | 225 | 0.0 | 0.0 | 0.00 | 0.32 | 0.32 | 95 | 1015.7 |
| 20260901030110 | 71 | 225 | 0.0 | 0.0 | 0.00 | 0.32 | 0.32 | 95 | 1015.8 |
| 20260901025534 | 71 | 225 | 0.0 | 0.0 | 0.00 | 0.32 | 0.32 | 95 | 1015.8 |
| 20260901025012 | 71 | 225 | 0.0 | 0.0 | 0.00 | 0.32 | 0.32 | 95 | 1015.7 |
| 20260901024559 | 71 | 225 | 0.0 | 0.0 | 0.00 | 0.32 | 0.32 | 95 | 1015.8 |
| 20260901024036 | 71 | 225 | 0.0 | 0.0 | 0.00 | 0.32 | 0.32 | 95 | 1015.8 |
| 20260901023517 | 71 | 225 | 0.0 | 0.0 | 0.00 | 0.32 | 0.32 | 95 | 1016.0 |
| 20260901023100 | 71 | 225 | 0.0 | 0.0 | 0.00 | 0.32 | 0.32 | 95 | 1016.1 |
| 20260901022539 | 71 | 225 | 0.0 | 0.0 | 0.00 | 0.32 | 0.32 | 95 | 1016.1 |
| 20260901022022 | 71 | 225 | 0.0 | 0.0 | 0.00 | 0.32 | 0.32 | 95 | 1015.9 |
| 20260901021605 | 72 | 225 | 0.0 | 0.0 | 0.00 | 0.32 | 0.32 | 95 | 1016.1 |
| 20260901021044 | 72 | 225 | 0.0 | 0.0 | 0.00 | 0.32 | 0.32 | 95 | 1016.1 |
| 20260901020525 | 72 | 225 | 0.0 | 0.0 | 0.00 | 0.32 | 0.32 | 95 | 1016.1 |
| 20260901020108 | 72 | 225 | 0.0 | 0.0 | 0.00 | 0.32 | 0.32 | 95 | 1016.2 |
| 20260901015529 | 72 | 225 | 0.0 | 0.0 | 0.00 | 0.32 | 0.32 | 95 | 1016.2 |
| 20260901015011 | 72 | 225 | 0.0 | 0.0 | 0.00 | 0.32 | 0.32 | 95 | 1016.2 |
| 20260901014554 | 72 | 225 | 0.0 | 0.0 | 0.00 | 0.32 | 0.32 | 95 | 1016.1 |
| 20260901014036 | 72 | 225 | 0.0 | 0.0 | 0.00 | 0.32 | 0.32 | 95 | 1016.2 |
| 20260901013519 | 72 | 225 | 0.0 | 0.0 | 0.00 | 0.32 | 0.32 | 95 | 1016.1 |
| 20260901013100 | 72 | 225 | 0.0 | 0.0 | 0.00 | 0.32 | 0.32 | 95 | 1016.2 |
| 20260901012537 | 72 | 225 | 0.0 | 0.0 | 0.00 | 0.32 | 0.32 | 95 | 1016.2 |
| 20260901012020 | 72 | 225 | 0.0 | 0.0 | 0.00 | 0.32 | 0.32 | 95 | 1016.2 |
| 20260901011603 | 72 | 225 | 0.0 | 0.0 | 0.00 | 0.32 | 0.32 | 95 | 1016.5 |
| 20260901011041 | 72 | 225 | 0.0 | 0.0 | 0.00 | 0.32 | 0.32 | 95 | 1016.5 |
| 20260901010521 | 72 | 225 | 0.0 | 0.0 | 0.00 | 0.32 | 0.32 | 94 | 1016.4 |
| 20260901010108 | 72 | 225 | 0.0 | 0.0 | 0.00 | 0.32 | 0.32 | 94 | 1016.6 |
| 20260901005528 | 72 | 225 | 0.0 | 0.0 | 0.00 | 0.32 | 0.32 | 94 | 1016.7 |
| 20260901005007 | 72 | 225 | 0.0 | 2.0 | 0.00 | 0.32 | 0.32 | 94 | 1016.4 |
| 20260901004551 | 72 | 225 | 0.0 | 2.0 | 0.00 | 0.32 | 0.32 | 94 | 1016.5 |
| 20260901004032 | 73 | 225 | 0.0 | 0.0 | 0.00 | 0.32 | 0.32 | 94 | 1016.2 |
| 20260901003511 | 72 | 225 | 0.0 | 0.0 | 0.00 | 0.32 | 0.32 | 94 | 1016.1 |
| 20260901003055 | 72 | 225 | 0.0 | 0.0 | 0.00 | 0.32 | 0.32 | 94 | 1016.0 |
| 20260901002535 | 73 | 225 | 0.0 | 0.0 | 0.00 | 0.32 | 0.32 | 94 | 1016.0 |
| 20260901002019 | 73 | 225 | 0.0 | 0.0 | 0.00 | 0.32 | 0.32 | 94 | 1016.0 |
| 20260901001606 | 73 | 225 | 0.0 | 0.0 | 0.00 | 0.32 | 0.32 | 94 | 1016.0 |
| 20260901001039 | 73 | 225 | 0.0 | 0.0 | 0.00 | 0.32 | 0.32 | 94 | 1016.0 |
| 20260901000525 | 73 | 225 | 0.0 | 0.0 | 0.00 | 0.32 | 0.32 | 94 | 1015.9 |
| 20260901000106 | 73 | 225 | 0.0 | 1.0 | 0.00 | 0.32 | 0.32 | 94 | 1016.0 |
| 20260831235525 | 73 | 225 | 0.0 | 0.0 | 0.00 | 0.32 | 0.32 | 94 | 1016.0 |
| 20260831235006 | 73 | 225 | 0.0 | 0.0 | 0.00 | 0.32 | 0.32 | 94 | 1016.0 |
| 20260831234550 | 73 | 225 | 0.0 | 0.0 | 0.00 | 0.32 | 0.32 | 94 | 1016.0 |
| 20260831234034 | 73 | 225 | 0.0 | 0.0 | 0.00 | 0.32 | 0.32 | 94 | 1015.9 |
| 20260831233509 | 74 | 225 | 0.0 | 0.0 | 0.00 | 0.32 | 0.32 | 94 | 1015.9 |
| 20260831233053 | 74 | 225 | 0.0 | 0.0 | 0.00 | 0.32 | 0.32 | 94 | 1016.0 |
| 20260831232533 | 74 | 225 | 0.0 | 0.0 | 0.00 | 0.32 | 0.32 | 94 | 1015.9 |
| 20260831232014 | 74 | 225 | 0.0 | 0.0 | 0.00 | 0.32 | 0.32 | 94 | 1016.0 |
| 20260831231602 | 74 | 225 | 0.0 | 0.0 | 0.00 | 0.32 | 0.32 | 94 | 1016.1 |
| 20260831231037 | 74 | 225 | 0.0 | 0.0 | 0.00 | 0.32 | 0.32 | 94 | 1015.9 |
| 20260831230517 | 74 | 225 | 0.0 | 0.0 | 0.00 | 0.32 | 0.32 | 94 | 1015.9 |
| 20260831230139 | 74 | 225 | 0.0 | 0.0 | 0.00 | 0.32 | 0.32 | 94 | 1016.0 |
| 20260831225523 | 74 | 225 | 0.0 | 0.0 | 0.00 | 0.32 | 0.32 | 94 | 1016.0 |
| 20260831225003 | 74 | 225 | 0.0 | 0.0 | 0.00 | 0.32 | 0.32 | 93 | 1015.9 |
| 20260831224547 | 74 | 225 | 0.0 | 0.0 | 0.00 | 0.32 | 0.32 | 94 | 1015.8 |
| 20260831224027 | 74 | 225 | 0.0 | 0.0 | 0.00 | 0.32 | 0.32 | 94 | 1016.0 |
| 20260831223507 | 74 | 225 | 0.0 | 4.0 | 0.00 | 0.32 | 0.32 | 94 | 1016.1 |
| 20260831223051 | 74 | 225 | 0.0 | 4.0 | 0.00 | 0.32 | 0.32 | 94 | 1016.1 |
| 20260831222530 | 74 | 225 | 0.0 | 2.0 | 0.00 | 0.32 | 0.32 | 94 | 1016.2 |
| 20260831222012 | 74 | 225 | 0.0 | 5.0 | 0.00 | 0.32 | 0.32 | 94 | 1016.2 |
| 20260831221623 | 74 | 225 | 0.0 | 5.0 | 0.00 | 0.32 | 0.32 | 94 | 1016.2 |
| 20260831221035 | 74 | 224 | 0.0 | 5.0 | 0.00 | 0.32 | 0.32 | 95 | 1016.3 |
| 20260831220515 | 74 | 225 | 0.0 | 0.0 | 0.00 | 0.32 | 0.32 | 95 | 1016.4 |
| 20260831220059 | 74 | 225 | 0.0 | 0.0 | 0.00 | 0.32 | 0.32 | 95 | 1016.3 |
| 20260831215524 | 74 | 225 | 0.0 | 0.0 | 0.00 | 0.32 | 0.32 | 95 | 1016.3 |
| 20260831215000 | 74 | 225 | 0.0 | 0.0 | 0.00 | 0.32 | 0.32 | 95 | 1016.4 |
| 20260831214548 | 74 | 225 | 0.0 | 0.0 | 0.00 | 0.32 | 0.32 | 95 | 1016.5 |
| 20260831214028 | 74 | 225 | 0.0 | 0.0 | 0.00 | 0.32 | 0.32 | 95 | 1016.6 |
| 20260831213505 | 74 | 225 | 0.0 | 0.0 | 0.00 | 0.32 | 0.32 | 95 | 1016.6 |
| 20260831213054 | 74 | 225 | 0.0 | 0.0 | 0.00 | 0.32 | 0.32 | 95 | 1016.7 |
| 20260831212529 | 74 | 225 | 0.0 | 0.0 | 0.00 | 0.32 | 0.32 | 95 | 1016.6 |
| 20260831212009 | 74 | 225 | 0.0 | 2.0 | 0.00 | 0.32 | 0.32 | 95 | 1016.6 |
| 20260831211603 | 74 | 225 | 0.0 | 2.0 | 0.00 | 0.32 | 0.32 | 95 | 1016.6 |
| 20260831211034 | 74 | 225 | 0.0 | 0.0 | 0.00 | 0.32 | 0.32 | 95 | 1016.6 |
| 20260831210515 | 74 | 225 | 0.0 | 0.0 | 0.00 | 0.32 | 0.32 | 95 | 1016.5 |
| 20260831210057 | 74 | 225 | 0.0 | 0.0 | 0.00 | 0.32 | 0.32 | 95 | 1016.3 |
| 20260831205519 | 73 | 225 | 0.0 | 0.0 | 0.00 | 0.32 | 0.32 | 95 | 1016.4 |
| 20260831205103 | 73 | 225 | 0.0 | 0.0 | 0.00 | 0.32 | 0.32 | 95 | 1016.4 |
| 20260831204543 | 73 | 225 | 0.0 | 0.0 | 0.00 | 0.32 | 0.32 | 95 | 1016.3 |
| 20260831204023 | 73 | 225 | 0.0 | 0.0 | 0.00 | 0.32 | 0.32 | 95 | 1015.9 |
| 20260831203504 | 73 | 225 | 0.0 | 0.0 | 0.00 | 0.32 | 0.32 | 95 | 1016.1 |
| 20260831203048 | 73 | 225 | 0.0 | 0.0 | 0.00 | 0.32 | 0.32 | 95 | 1016.3 |
| 20260831202531 | 73 | 225 | 0.0 | 0.0 | 0.01 | 0.32 | 0.32 | 95 | 1016.2 |
| 20260831202007 | 73 | 225 | 0.0 | 0.0 | 0.01 | 0.32 | 0.32 | 95 | 1016.3 |
| 20260831201555 | 73 | 225 | 0.0 | 0.0 | 0.01 | 0.32 | 0.32 | 95 | 1016.3 |
| 20260831201031 | 73 | 225 | 0.0 | 0.0 | 0.01 | 0.34 | 0.32 | 95 | 1016.4 |
| 20260831200512 | 73 | 225 | 0.0 | 0.0 | 0.01 | 0.34 | 0.32 | 95 | 1016.3 |
| 20260831200055 | 73 | 225 | 0.0 | 0.0 | 0.01 | 0.34 | 0.32 | 95 | 1016.5 |
| 20260831195517 | 73 | 225 | 0.0 | 0.0 | 0.01 | 0.34 | 0.32 | 95 | 1016.5 |
| 20260831195101 | 73 | 225 | 0.0 | 0.0 | 0.02 | 0.34 | 0.32 | 95 | 1016.5 |
| 20260831194615 | 72 | 225 | 0.0 | 0.0 | 0.03 | 0.34 | 0.32 | 95 | 1016.5 |
| 20260831194024 | 72 | 225 | 0.0 | 2.0 | 0.03 | 0.34 | 0.32 | 95 | 1016.6 |
| 20260831193500 | 72 | 225 | 0.0 | 2.0 | 0.03 | 0.34 | 0.32 | 95 | 1016.6 |
| 20260831193045 | 72 | 225 | 0.0 | 4.0 | 0.04 | 0.34 | 0.32 | 95 | 1016.6 |
| 20260831192524 | 72 | 225 | 0.0 | 4.0 | 0.04 | 0.33 | 0.31 | 95 | 1016.7 |
| 20260831192008 | 72 | 227 | 0.0 | 0.0 | 0.06 | 0.33 | 0.31 | 95 | 1016.8 |
| 20260831191549 | 72 | 227 | 0.0 | 0.0 | 0.07 | 0.33 | 0.31 | 95 | 1016.9 |
| 20260831191029 | 72 | 227 | 0.0 | 0.0 | 0.07 | 0.33 | 0.31 | 95 | 1016.9 |
| 20260831190510 | 72 | 227 | 0.0 | 1.0 | 0.07 | 0.33 | 0.31 | 95 | 1016.9 |
| 20260831190104 | 72 | 227 | 0.0 | 1.0 | 0.07 | 0.33 | 0.31 | 95 | 1017.0 |
| 20260831185512 | 72 | 227 | 0.0 | 0.0 | 0.06 | 0.32 | 0.30 | 95 | 1017.0 |
| 20260831185056 | 72 | 227 | 0.0 | 0.0 | 0.06 | 0.32 | 0.30 | 95 | 1017.2 |
| 20260831184544 | 72 | 227 | 0.0 | 0.0 | 0.05 | 0.31 | 0.28 | 95 | 1017.2 |
| 20260831184016 | 72 | 227 | 0.0 | 0.0 | 0.05 | 0.31 | 0.28 | 95 | 1017.2 |
| 20260831183600 | 72 | 227 | 0.0 | 0.0 | 0.05 | 0.31 | 0.28 | 95 | 1017.1 |
| 20260831183042 | 72 | 227 | 0.0 | 0.0 | 0.04 | 0.30 | 0.28 | 95 | 1017.2 |
| 20260831182521 | 72 | 227 | 0.0 | 0.0 | 0.03 | 0.28 | 0.27 | 95 | 1017.2 |
| 20260831182106 | 72 | 227 | 0.0 | 0.0 | 0.01 | 0.27 | 0.25 | 95 | 1017.2 |
| 20260831181544 | 72 | 227 | 0.0 | 0.0 | 0.00 | 0.26 | 0.24 | 95 | 1017.1 |
| 20260831181023 | 72 | 227 | 0.0 | 0.0 | 0.00 | 0.26 | 0.24 | 95 | 1017.1 |
| 20260831180504 | 72 | 227 | 0.0 | 2.0 | 0.00 | 0.26 | 0.24 | 95 | 1017.0 |
| 20260831180048 | 72 | 227 | 0.0 | 2.0 | 0.01 | 0.26 | 0.24 | 95 | 1017.0 |
| 20260831175511 | 72 | 227 | 0.0 | 0.0 | 0.01 | 0.26 | 0.24 | 95 | 1017.1 |
| 20260831175054 | 72 | 250 | 0.0 | 0.0 | 0.01 | 0.26 | 0.24 | 95 | 1017.4 |
| 20260831174547 | 72 | 250 | 0.0 | 0.0 | 0.01 | 0.26 | 0.24 | 95 | 1017.6 |
| 20260831174017 | 72 | 250 | 0.0 | 0.0 | 0.01 | 0.26 | 0.24 | 95 | 1017.4 |
| 20260831173558 | 72 | 250 | 0.0 | 0.0 | 0.01 | 0.26 | 0.24 | 95 | 1017.4 |
| 20260831173043 | 71 | 250 | 0.0 | 0.0 | 0.01 | 0.26 | 0.24 | 95 | 1017.4 |
| 20260831172517 | 71 | 250 | 0.0 | 0.0 | 0.01 | 0.26 | 0.24 | 95 | 1017.4 |
| 20260831172104 | 71 | 250 | 0.0 | 0.0 | 0.01 | 0.26 | 0.24 | 95 | 1017.3 |
| 20260831171544 | 71 | 250 | 0.0 | 0.0 | 0.01 | 0.26 | 0.24 | 95 | 1017.4 |
| 20260831171022 | 71 | 250 | 0.0 | 0.0 | 0.01 | 0.26 | 0.24 | 95 | 1017.4 |
| 20260831170504 | 71 | 250 | 0.0 | 0.0 | 0.01 | 0.26 | 0.24 | 95 | 1017.6 |
| 20260831170125 | 71 | 250 | 0.0 | 0.0 | 0.00 | 0.25 | 0.23 | 95 | 1017.7 |
| 20260831165507 | 71 | 250 | 0.0 | 0.0 | 0.00 | 0.25 | 0.23 | 95 | 1017.7 |
| 20260831165051 | 71 | 250 | 0.0 | 0.0 | 0.00 | 0.25 | 0.23 | 95 | 1017.7 |
| 20260831164534 | 71 | 250 | 0.0 | 4.0 | 0.00 | 0.25 | 0.23 | 95 | 1017.6 |
| 20260831164013 | 71 | 250 | 0.0 | 4.0 | 0.00 | 0.25 | 0.23 | 95 | 1017.7 |
| 20260831163556 | 71 | 283 | 0.0 | 4.0 | 0.00 | 0.25 | 0.23 | 95 | 1017.7 |
| 20260831163040 | 71 | 283 | 0.0 | 4.0 | 0.00 | 0.25 | 0.23 | 95 | 1017.7 |